Location: Allie Creek
(37.5926°N, 89.8526°W)
Time: 11:41:09
(UTC+00:00)

SL-08 R/B - Pass Details

Date: 26 September 2023
Orbit: 950 x 1017 km, 82.9° (Epoch: 28 November)

Event Time Altitude Azimuth Distance (km) Brightness Sun altitude
Rises 01:45:30 0° 354° (N) 3,651 7.8 -23.0°
Reaches altitude 10° 01:48:02 10° 355° (N) 2,694 7.1 -23.5°
Maximum altitude 01:54:11 81° 84° (E) 968 4.3 -24.7°
Enters shadow 01:56:30 41° 165° (SSE) 1,350 4.9 -25.1°
